CET YMLT-YMLT

Flight info

Callsign CET
Flight time 0h 2m
Altitude 1500
Route CCTS
Aircraft C152/L-SFG/C

Departure

Time 2026-04-16 08:45
Airport Launceston Airport (YMLT)

Arrival

Time 2026-04-16 08:47
Airport Launceston Airport (YMLT)
Time Latitude Longitude Altitude Speed Heading
2026-04-16 08:28 -41.54814 147.21017 575 ft 0 kts 323°
2026-04-16 08:42 -41.54813 147.21017 498 ft 1 kts 323°
2026-04-16 08:43 -41.54808 147.21042 576 ft 9 kts 112°
2026-04-16 08:43 -41.54888 147.21132 575 ft 21 kts 150°
2026-04-16 08:43 -41.54946 147.21276 578 ft 16 kts 56°
2026-04-16 08:43 -41.54938 147.21315 580 ft 11 kts 81°
2026-04-16 08:44 -41.54880 147.21430 584 ft 17 kts 328°
2026-04-16 08:44 -41.54652 147.21231 624 ft 54 kts 326°
2026-04-16 08:44 -41.54336 147.20988 841 ft 51 kts 327°
2026-04-16 08:44 -41.54021 147.20746 1106 ft 51 kts 324°
2026-04-16 08:45 -41.53811 147.20585 1267 ft 56 kts 332°
2026-04-16 08:45 -41.53429 147.20910 1452 ft 89 kts 47°
2026-04-16 08:45 -41.52974 147.22012 1470 ft 100 kts 65°
2026-04-16 08:45 -41.53106 147.22570 1625 ft 99 kts 140°
2026-04-16 08:46 -41.53703 147.23174 1573 ft 113 kts 150°
2026-04-16 08:46 -41.54573 147.24040 1560 ft 121 kts 150°
2026-04-16 08:46 -41.55215 147.24693 1574 ft 106 kts 152°
2026-04-16 08:46 -41.55622 147.24867 1564 ft 79 kts 212°
2026-04-16 08:47 -41.56019 147.24247 1434 ft 71 kts 259°
2026-04-16 08:47 -41.56158 147.23817 1304 ft 79 kts 259°
2026-04-16 08:47 -41.56392 147.23175 1148 ft 72 kts 260°
2026-04-16 08:47 -41.56378 147.22674 1069 ft 49 kts 328°
2026-04-16 08:48 -41.56076 147.22457 978 ft 50 kts 325°
2026-04-16 08:48 -41.55793 147.22204 889 ft 48 kts 330°
2026-04-16 08:48 -41.55513 147.21966 739 ft 47 kts 325°
2026-04-16 08:48 -41.55251 147.21741 634 ft 48 kts 325°
2026-04-16 08:49 -41.54993 147.21519 588 ft 33 kts 327°
2026-04-16 08:49 -41.54814 147.21365 582 ft 45 kts 328°
2026-04-16 08:49 -41.54532 147.21154 780 ft 46 kts 329°
2026-04-16 08:49 -41.54243 147.20898 948 ft 56 kts 321°
2026-04-16 08:50 -41.53910 147.20629 1153 ft 60 kts 328°
2026-04-16 08:50 -41.53554 147.20330 934 ft 59 kts 319°
2026-04-16 08:50 -41.53332 147.19935 774 ft 49 kts 308°
2026-04-16 08:50 -41.53223 147.19558 573 ft 29 kts 310°
2026-04-16 08:51 -41.53204 147.19507 578 ft 0 kts 235°
2026-04-16 08:51 -41.53158 147.19454 586 ft 20 kts 325°
2026-04-16 08:51 -41.52949 147.19279 585 ft 44 kts 322°
2026-04-16 08:51 -41.52724 147.19067 796 ft 0 kts 293°
2026-04-16 08:52 -41.59659 147.03826 1557 ft 2181 kts 246°
2026-04-16 08:52 -41.63199 146.96809 1601 ft 62 kts 232°
2026-04-16 08:52 -41.68785 146.91106 5832 ft 8485 kts 163°
2026-04-16 08:52 -41.69658 146.91854 6059 ft 63 kts 63°
2026-04-16 08:53 -41.69240 146.92153 6071 ft 68 kts 17°
2026-04-16 08:53 -41.68904 146.92308 5541 ft 96 kts 15°
2026-04-16 08:53 -41.68384 146.92481 5795 ft 53 kts
2026-04-16 08:53 -41.68238 146.92492 4874 ft 15 kts 203°
2026-04-16 08:54 -41.68685 146.92278 4702 ft 57 kts 213°
2026-04-16 08:54 -41.68990 146.92051 4411 ft 68 kts 193°
2026-04-16 08:54 -41.69275 146.92240 4176 ft 37 kts 107°
2026-04-16 08:54 -41.68975 146.92612 3716 ft 70 kts 333°
2026-04-16 08:55 -41.69057 146.92476 3395 ft 26 kts 169°
2026-04-16 08:55 -41.69203 146.93045 2786 ft 55 kts 222°
2026-04-16 08:55 -41.69501 146.92779 2317 ft 46 kts 193°
2026-04-16 08:55 -41.69183 146.92737 1871 ft 89 kts 25°
2026-04-16 08:56 -41.68838 146.93187 1976 ft 83 kts 49°
2026-04-16 08:56 -41.68553 146.93885 1879 ft 91 kts 96°
2026-04-16 08:56 -41.68358 146.94617 1789 ft 92 kts 46°
2026-04-16 08:56 -41.67855 146.95193 1664 ft 94 kts 36°
2026-04-16 08:57 -41.67336 146.95741 1626 ft 99 kts 38°
2026-04-16 08:57 -41.66795 146.96356 1609 ft 104 kts 46°
2026-04-16 08:57 -41.66345 146.97094 1689 ft 100 kts 53°
2026-04-16 08:57 -41.65929 146.97858 1734 ft 102 kts 51°
2026-04-16 08:58 -41.65480 146.98601 1772 ft 104 kts 49°
2026-04-16 08:58 -41.64983 146.99307 1797 ft 105 kts 44°
2026-04-16 08:58 -41.64464 146.99996 1794 ft 105 kts 46°
2026-04-16 08:58 -41.63972 147.00725 1762 ft 107 kts 50°
2026-04-16 08:59 -41.63512 147.01501 1782 ft 105 kts 50°
2026-04-16 08:59 -41.63022 147.02225 1773 ft 107 kts 45°
2026-04-16 08:59 -41.62508 147.02949 1759 ft 107 kts 47°
2026-04-16 08:59 -41.61994 147.03658 1786 ft 105 kts 44°
2026-04-16 09:00 -41.61472 147.04346 1814 ft 106 kts 46°
2026-04-16 09:00 -41.60971 147.05086 1830 ft 107 kts 49°
2026-04-16 09:00 -41.60490 147.05850 1789 ft 109 kts 49°
2026-04-16 09:00 -41.59986 147.06585 1784 ft 107 kts 45°
2026-04-16 09:01 -41.59059 147.08153 1750 ft 107 kts 57°
2026-04-16 09:01 -41.58678 147.09003 1745 ft 108 kts 59°
2026-04-16 09:01 -41.58313 147.09865 1771 ft 106 kts 62°
2026-04-16 09:02 -41.57971 147.10751 1774 ft 107 kts 63°
2026-04-16 09:02 -41.57633 147.11622 1762 ft 106 kts 60°
2026-04-16 09:02 -41.57271 147.12480 1789 ft 105 kts 60°
2026-04-16 09:02 -41.56953 147.13375 1778 ft 109 kts 69°
2026-04-16 09:03 -41.56661 147.14307 1763 ft 109 kts 64°
2026-04-16 09:03 -41.56317 147.15194 1765 ft 107 kts 60°
2026-04-16 09:03 -41.55958 147.16063 1766 ft 108 kts 60°
2026-04-16 09:03 -41.55582 147.16923 1784 ft 107 kts 58°
2026-04-16 09:04 -41.55207 147.17795 1726 ft 111 kts 60°
2026-04-16 09:04 -41.55082 147.18747 1717 ft 105 kts 114°
2026-04-16 09:04 -41.55581 147.19452 1667 ft 105 kts 144°
2026-04-16 09:04 -41.56175 147.20003 1641 ft 100 kts 146°
2026-04-16 09:05 -41.56668 147.20480 1582 ft 80 kts 144°
2026-04-16 09:05 -41.57092 147.20917 1508 ft 79 kts 142°
2026-04-16 09:05 -41.57360 147.21483 1489 ft 75 kts 86°
2026-04-16 09:05 -41.57038 147.22024 1383 ft 73 kts 44°
2026-04-16 09:06 -41.56710 147.22546 1190 ft 75 kts 49°
2026-04-16 09:06 -41.56291 147.22840 974 ft 71 kts 334°
2026-04-16 09:06 -41.55970 147.22383 844 ft 68 kts 320°
2026-04-16 09:06 -41.55569 147.22015 724 ft 70 kts 326°
2026-04-16 09:07 -41.55185 147.21682 607 ft 63 kts 326°
2026-04-16 09:07 -41.54868 147.21410 587 ft 43 kts 326°
2026-04-16 09:07 -41.54659 147.21232 586 ft 36 kts 327°
2026-04-16 09:07 -41.54301 147.20926 670 ft 74 kts 326°
2026-04-16 09:08 -41.53853 147.20519 915 ft 80 kts 323°
2026-04-16 09:08 -41.53392 147.20160 1224 ft 77 kts 347°
2026-04-16 09:08 -41.52912 147.20389 1485 ft 82 kts 46°
2026-04-16 09:08 -41.52643 147.21185 1423 ft 100 kts 68°
2026-04-16 09:09 -41.52388 147.21989 1513 ft 89 kts 98°
2026-04-16 09:09 -41.52789 147.22594 1531 ft 95 kts 142°
2026-04-16 09:09 -41.53356 147.23095 1515 ft 100 kts 151°
2026-04-16 09:09 -41.53971 147.23543 1503 ft 101 kts 154°
2026-04-16 09:10 -41.54564 147.23920 1519 ft 86 kts 157°
2026-04-16 09:10 -41.55101 147.24212 1478 ft 82 kts 161°
2026-04-16 09:10 -41.55616 147.24460 1421 ft 75 kts 174°
2026-04-16 09:10 -41.55977 147.24026 1291 ft 80 kts 242°
2026-04-16 09:11 -41.56241 147.23393 1216 ft 76 kts 242°
2026-04-16 09:11 -41.56436 147.22745 1112 ft 75 kts 279°
2026-04-16 09:11 -41.56040 147.22403 961 ft 70 kts 336°
2026-04-16 09:11 -41.55639 147.22081 786 ft 64 kts 326°
2026-04-16 09:12 -41.55273 147.21759 638 ft 62 kts 326°
2026-04-16 09:12 -41.54949 147.21479 588 ft 45 kts 327°
2026-04-16 09:12 -41.54704 147.21272 585 ft 56 kts 329°
2026-04-16 09:12 -41.54314 147.20920 800 ft 70 kts 324°
2026-04-16 09:13 -41.53910 147.20556 1099 ft 70 kts 326°
2026-04-16 09:13 -41.53459 147.20430 1379 ft 74 kts 25°
2026-04-16 09:13 -41.53151 147.21080 1435 ft 100 kts 67°
2026-04-16 09:13 -41.52892 147.21964 1446 ft 98 kts 82°
2026-04-16 09:14 -41.53252 147.22659 1450 ft 102 kts 142°
2026-04-16 09:14 -41.53825 147.23179 1510 ft 98 kts 148°
2026-04-16 09:14 -41.54394 147.23696 1536 ft 97 kts 148°
2026-04-16 09:14 -41.54950 147.24135 1453 ft 87 kts 152°
2026-04-16 09:15 -41.55486 147.24452 1369 ft 77 kts 185°
2026-04-16 09:15 -41.55829 147.23989 1314 ft 74 kts 240°
2026-04-16 09:15 -41.56054 147.23414 1305 ft 68 kts 242°
2026-04-16 09:15 -41.56281 147.22872 1184 ft 66 kts 244°
2026-04-16 09:16 -41.56056 147.22431 1028 ft 70 kts 329°
2026-04-16 09:16 -41.55637 147.22075 822 ft 70 kts 324°
2026-04-16 09:16 -41.55268 147.21756 651 ft 63 kts 327°
2026-04-16 09:16 -41.54930 147.21464 590 ft 46 kts 326°
2026-04-16 09:17 -41.54712 147.21276 585 ft 37 kts 328°
2026-04-16 09:17 -41.54369 147.20989 646 ft 74 kts 326°
2026-04-16 09:17 -41.53943 147.20614 949 ft 71 kts 323°
2026-04-16 09:17 -41.53626 147.20726 1248 ft 57 kts 72°
2026-04-16 09:18 -41.53866 147.20772 736 ft 78 kts 219°
2026-04-16 09:18 -41.54294 147.20926 597 ft 55 kts 148°
2026-04-16 09:18 -41.54538 147.21129 586 ft 29 kts 149°
2026-04-16 09:18 -41.54682 147.21224 586 ft 18 kts 164°
2026-04-16 09:19 -41.54768 147.21062 585 ft 41 kts 245°
2026-04-16 09:19 -41.54707 147.20724 587 ft 51 kts 328°
2026-04-16 09:19 -41.54501 147.20519 579 ft 29 kts 318°